Precipitable_Water
0.58 0.58 0.59 0.60 0.59 0.58 0.57 0.53 0.49 0.48 0.47 0.46 0.45 0.44 0.43 0.42 0.43 0.44 0.46 0.46 0.45 0.46 0.48 0.50 0.50 0.49 0.49 0.49 0.49 0.50 0.50 0.42 0.37 0.34 0.31 0.31 0.35 0.40 0.38 0.42 0.68 0.86 0.98 0.96 1.02 0.94 0.89 0.97 0.93 1.02 1.04 1.01 1.06 1.10 1.29 1.30 1.33 1.20 0.95 0.84 0.72 0.74 0.71 0.75 0.76 0.79 0.80 0.73 0.76 0.67 0.68 0.65 0.57 0.64 0.75 0.82 0.76 0.78 0.79 0.91 0.94 1.09 1.04 1.20 1.24 1.33 1.40 1.51
0.56 0.57 0.57 0.57 0.57 0.57 0.58 0.58 0.55 0.51 0.48 0.47 0.46 0.45 0.45 0.44 0.42 0.42 0.44 0.45 0.45 0.45 0.47 0.49 0.49 0.50 0.49 0.48 0.48 0.51 0.47 0.38 0.31 0.29 0.27 0.36 0.38 0.40 0.42 0.40 0.63 0.77 0.89 0.84 0.78 0.81 0.80 0.84 0.91 0.90 0.95 0.86 1.09 1.01 1.17 1.13 1.28 1.01 0.95 0.86 0.72 0.75 0.78 0.84 0.84 0.86 0.78 0.76 0.82 0.82 0.77 0.71 0.63 0.64 0.67 0.62 0.65 0.70 0.69 0.82 0.88 0.89 1.08 1.17 1.21 1.27 1.34 1.43
0.54 0.54 0.54 0.55 0.55 0.54 0.55 0.57 0.57 0.56 0.52 0.48 0.47 0.46 0.45 0.45 0.44 0.42 0.42 0.44 0.46 0.47 0.47 0.48 0.48 0.50 0.50 0.49 0.49 0.49 0.44 0.32 0.28 0.26 0.37 0.42 0.44 0.43 0.43 0.42 0.61 0.71 0.73 0.70 0.76 0.79 0.81 0.86 0.91 0.87 0.87 0.85 0.84 0.92 0.93 1.10 1.12 1.04 0.95 0.82 0.79 0.85 0.83 0.88 0.85 0.85 0.84 0.83 0.79 0.81 0.79 0.76 0.71 0.70 0.69 0.66 0.64 0.66 0.63 0.67 0.77 0.84 0.90 1.02 1.13 1.21 1.27 1.35
0.52 0.51 0.52 0.53 0.54 0.54 0.53 0.53 0.54 0.54 0.54 0.53 0.50 0.48 0.47 0.46 0.45 0.43 0.41 0.41 0.42 0.44 0.47 0.47 0.48 0.49 0.49 0.48 0.50 0.50 0.41 0.26 0.19 0.29 0.38 0.43 0.43 0.44 0.43 0.43 0.63 0.68 0.71 0.73 0.76 0.78 0.88 0.93 0.84 0.80 0.74 0.71 0.80 0.86 0.76 1.05 0.92 1.02 0.92 0.83 0.81 0.86 0.79 0.78 0.84 0.82 0.81 0.83 0.78 0.81 0.81 0.77 0.73 0.74 0.66 0.71 0.61 0.61 0.66 0.69 0.68 0.77 0.92 1.00 1.08 1.15 1.21 1.27
0.52 0.52 0.51 0.51 0.52 0.53 0.53 0.52 0.51 0.50 0.51 0.52 0.52 0.52 0.50 0.47 0.45 0.45 0.44 0.42 0.42 0.44 0.45 0.47 0.48 0.49 0.49 0.50 0.49 0.50 0.32 0.15 0.20 0.28 0.40 0.43 0.45 0.46 0.44 0.44 0.58 0.67 0.69 0.69 0.73 0.74 0.78 0.79 0.78 0.75 0.72 0.58 0.66 0.70 0.70 0.91 0.96 1.01 0.92 0.90 0.88 0.89 0.82 0.79 0.80 0.82 0.79 0.78 0.76 0.77 0.73 0.77 0.82 0.76 0.64 0.68 0.56 0.54 0.65 0.72 0.80 0.89 0.93 0.97 1.01 1.10 1.16 1.20
0.52 0.52 0.52 0.50 0.50 0.51 0.52 0.52 0.51 0.50 0.48 0.48 0.49 0.51 0.52 0.51 0.49 0.46 0.45 0.45 0.44 0.44 0.44 0.46 0.48 0.48 0.50 0.52 0.49 0.44 0.27 0.11 0.27 0.36 0.45 0.44 0.50 0.50 0.46 0.47 0.51 0.65 0.67 0.59 0.58 0.63 0.70 0.73 0.72 0.66 0.63 0.58 0.54 0.55 0.61 0.74 0.89 0.77 0.87 0.90 0.93 0.92 0.85 0.82 0.80 0.78 0.84 0.80 0.71 0.72 0.75 0.81 0.76 0.69 0.66 0.67 0.67 0.68 0.75 0.79 0.82 0.94 0.97 0.99 1.06 1.08 1.07 1.12
0.52 0.52 0.53 0.52 0.50 0.51 0.51 0.50 0.50 0.49 0.48 0.47 0.47 0.48 0.48 0.49 0.50 0.49 0.48 0.46 0.46 0.46 0.46 0.46 0.48 0.50 0.50 0.52 0.50 0.37 0.23 0.19 0.24 0.48 0.45 0.49 0.50 0.55 0.53 0.51 0.54 0.56 0.49 0.46 0.48 0.51 0.59 0.65 0.65 0.61 0.56 0.52 0.51 0.52 0.54 0.65 0.81 0.78 0.79 0.86 0.87 0.93 0.88 0.85 0.79 0.75 0.78 0.81 0.80 0.82 0.83 0.73 0.67 0.62 0.68 0.62 0.67 0.64 0.81 0.83 0.85 0.95 1.02 1.02 0.99 1.04 1.04 1.08
0.53 0.52 0.53 0.52 0.51 0.51 0.51 0.49 0.48 0.47 0.47 0.47 0.47 0.46 0.46 0.46 0.47 0.48 0.50 0.49 0.48 0.49 0.49 0.49 0.50 0.51 0.54 0.46 0.36 0.27 0.25 0.19 0.29 0.41 0.46 0.49 0.54 0.54 0.57 0.54 0.52 0.51 0.38 0.35 0.42 0.45 0.53 0.57 0.56 0.59 0.52 0.47 0.49 0.52 0.53 0.60 0.74 0.75 0.79 0.85 0.85 0.87 0.88 0.84 0.78 0.72 0.76 0.85 0.86 0.86 0.75 0.73 0.68 0.76 0.71 0.68 0.68 0.67 0.71 0.86 0.88 0.92 0.95 0.97 0.97 1.01 1.07 1.10
0.53 0.52 0.52 0.52 0.51 0.51 0.51 0.50 0.48 0.46 0.45 0.46 0.47 0.46 0.46 0.45 0.44 0.46 0.46 0.48 0.50 0.50 0.51 0.53 0.52 0.54 0.58 0.47 0.32 0.23 0.22 0.30 0.36 0.44 0.51 0.52 0.59 0.59 0.57 0.48 0.53 0.43 0.34 0.33 0.39 0.43 0.48 0.51 0.55 0.53 0.48 0.49 0.51 0.51 0.53 0.54 0.57 0.75 0.81 0.83 0.82 0.81 0.80 0.80 0.75 0.73 0.75 0.82 0.86 0.85 0.82 0.80 0.76 0.82 0.67 0.71 0.69 0.72 0.79 0.80 0.84 0.88 0.88 0.90 0.95 0.99 1.04 1.07
0.54 0.52 0.52 0.52 0.51 0.51 0.51 0.50 0.48 0.46 0.45 0.44 0.44 0.45 0.46 0.46 0.45 0.45 0.44 0.45 0.46 0.49 0.52 0.55 0.58 0.56 0.50 0.40 0.34 0.20 0.31 0.35 0.40 0.44 0.50 0.52 0.59 0.63 0.56 0.59 0.52 0.42 0.34 0.33 0.36 0.38 0.41 0.48 0.52 0.54 0.50 0.47 0.49 0.51 0.52 0.53 0.57 0.71 0.76 0.79 0.76 0.76 0.72 0.73 0.72 0.67 0.75 0.78 0.87 0.81 0.78 0.79 0.84 0.72 0.58 0.72 0.75 0.77 0.78 0.76 0.82 0.82 0.81 0.86 0.93 0.98 1.04 1.05
0.55 0.54 0.53 0.52 0.50 0.51 0.50 0.50 0.48 0.46 0.45 0.43 0.43 0.43 0.43 0.43 0.44 0.43 0.44 0.44 0.45 0.47 0.52 0.56 0.61 0.58 0.43 0.44 0.27 0.20 0.41 0.35 0.41 0.47 0.47 0.50 0.48 0.48 0.51 0.49 0.56 0.41 0.35 0.34 0.34 0.37 0.43 0.47 0.51 0.50 0.50 0.46 0.50 0.49 0.49 0.53 0.60 0.62 0.62 0.65 0.66 0.67 0.67 0.64 0.59 0.62 0.72 0.74 0.90 0.86 0.80 0.87 0.91 0.75 0.59 0.67 0.77 0.82 0.75 0.76 0.77 0.78 0.79 0.83 0.91 0.94 1.02 1.05
0.53 0.54 0.53 0.53 0.52 0.51 0.51 0.50 0.47 0.46 0.44 0.42 0.42 0.41 0.41 0.41 0.43 0.44 0.44 0.45 0.46 0.50 0.52 0.56 0.59 0.57 0.50 0.38 0.29 0.28 0.43 0.40 0.46 0.48 0.46 0.44 0.40 0.42 0.46 0.46 0.52 0.43 0.35 0.31 0.33 0.39 0.42 0.44 0.48 0.47 0.39 0.47 0.46 0.47 0.49 0.54 0.55 0.56 0.58 0.54 0.57 0.60 0.54 0.55 0.55 0.63 0.74 0.74 0.88 0.86 0.83 0.79 0.74 0.65 0.68 0.72 0.77 0.79 0.79 0.76 0.78 0.76 0.78 0.81 0.89 0.92 0.97 0.98
0.52 0.52 0.51 0.51 0.52 0.52 0.51 0.50 0.49 0.46 0.44 0.43 0.42 0.41 0.40 0.41 0.41 0.41 0.44 0.47 0.51 0.55 0.58 0.58 0.57 0.55 0.43 0.28 0.32 0.43 0.46 0.45 0.43 0.40 0.39 0.41 0.41 0.44 0.47 0.47 0.50 0.49 0.41 0.33 0.34 0.38 0.42 0.44 0.50 0.44 0.39 0.47 0.44 0.42 0.48 0.54 0.52 0.54 0.55 0.54 0.53 0.56 0.50 0.58 0.60 0.69 0.71 0.81 0.86 0.86 0.58 0.60 0.64 0.74 0.73 0.78 0.70 0.76 0.77 0.76 0.77 0.79 0.80 0.82 0.83 0.89 0.94 0.97
0.50 0.50 0.49 0.50 0.50 0.50 0.50 0.50 0.49 0.47 0.45 0.43 0.42 0.40 0.42 0.40 0.39 0.42 0.47 0.51 0.56 0.59 0.61 0.61 0.59 0.50 0.40 0.25 0.33 0.43 0.46 0.46 0.43 0.38 0.40 0.47 0.42 0.40 0.44 0.48 0.51 0.50 0.47 0.39 0.39 0.41 0.41 0.48 0.46 0.42 0.41 0.44 0.45 0.53 0.50 0.51 0.52 0.46 0.50 0.53 0.49 0.47 0.45 0.56 0.58 0.69 0.65 0.83 0.85 0.86 0.56 0.54 0.58 0.70 0.76 0.81 0.73 0.69 0.70 0.74 0.74 0.79 0.80 0.81 0.83 0.83 0.89 0.95
0.50 0.49 0.47 0.48 0.48 0.47 0.47 0.47 0.47 0.46 0.46 0.44 0.42 0.42 0.42 0.40 0.41 0.48 0.56 0.56 0.60 0.61 0.62 0.64 0.59 0.45 0.31 0.29 0.45 0.55 0.51 0.51 0.41 0.42 0.49 0.43 0.41 0.36 0.37 0.47 0.46 0.42 0.41 0.39 0.37 0.40 0.43 0.44 0.43 0.39 0.39 0.46 0.49 0.47 0.44 0.51 0.49 0.47 0.44 0.43 0.48 0.45 0.54 0.56 0.63 0.66 0.60 0.77 0.88 0.80 0.59 0.62 0.61 0.66 0.77 0.82 0.76 0.71 0.68 0.74 0.74 0.76 0.79 0.80 0.82 0.84 0.85 0.90
0.51 0.49 0.47 0.48 0.46 0.45 0.45 0.44 0.44 0.44 0.43 0.42 0.42 0.42 0.41 0.42 0.49 0.58 0.61 0.60 0.59 0.60 0.65 0.53 0.50 0.43 0.28 0.21 0.38 0.53 0.45 0.39 0.41 0.50 0.51 0.44 0.41 0.39 0.41 0.44 0.43 0.38 0.35 0.34 0.38 0.39 0.40 0.40 0.35 0.40 0.42 0.41 0.41 0.42 0.42 0.44 0.46 0.49 0.47 0.43 0.41 0.47 0.61 0.54 0.62 0.69 0.74 0.77 0.82 0.77 0.62 0.65 0.63 0.77 0.83 0.88 0.81 0.74 0.68 0.73 0.78 0.76 0.77 0.79 0.81 0.84 0.87 0.87
0.50 0.48 0.48 0.48 0.46 0.44 0.43 0.43 0.42 0.42 0.41 0.39 0.41 0.38 0.40 0.49 0.59 0.62 0.64 0.64 0.62 0.66 0.57 0.46 0.50 0.50 0.20 0.42 0.44 0.31 0.34 0.45 0.47 0.45 0.48 0.45 0.39 0.40 0.39 0.41 0.38 0.33 0.33 0.32 0.31 0.31 0.34 0.35 0.37 0.39 0.42 0.38 0.37 0.40 0.37 0.37 0.40 0.42 0.48 0.42 0.46 0.43 0.49 0.46 0.65 0.68 0.74 0.74 0.67 0.76 0.71 0.74 0.84 0.85 0.92 0.94 0.89 0.81 0.72 0.71 0.77 0.81 0.80 0.80 0.81 0.81 0.83 0.86
0.51 0.49 0.49 0.47 0.45 0.44 0.43 0.43 0.42 0.41 0.40 0.38 0.39 0.36 0.39 0.53 0.63 0.64 0.64 0.67 0.68 0.61 0.61 0.65 0.56 0.41 0.28 0.38 0.25 0.26 0.37 0.37 0.34 0.34 0.34 0.39 0.40 0.42 0.39 0.36 0.38 0.33 0.27 0.25 0.30 0.23 0.30 0.30 0.35 0.31 0.35 0.36 0.35 0.35 0.33 0.31 0.36 0.38 0.43 0.40 0.42 0.47 0.50 0.49 0.51 0.62 0.71 0.73 0.69 0.73 0.72 0.72 0.79 0.90 0.95 0.93 0.96 0.89 0.81 0.77 0.74 0.77 0.81 0.83 0.82 0.79 0.80 0.83
0.50 0.49 0.48 0.47 0.45 0.43 0.43 0.43 0.41 0.40 0.40 0.40 0.36 0.39 0.49 0.58 0.61 0.62 0.55 0.56 0.45 0.40 0.25 0.36 0.33 0.16 0.18 0.26 0.37 0.36 0.34 0.37 0.35 0.31 0.29 0.38 0.43 0.43 0.41 0.41 0.41 0.31 0.21 0.18 0.20 0.23 0.26 0.27 0.32 0.30 0.27 0.28 0.30 0.33 0.33 0.41 0.44 0.43 0.45 0.42 0.43 0.39 0.45 0.50 0.62 0.73 0.70 0.68 0.65 0.70 0.66 0.69 0.77 0.90 0.94 0.95 0.96 0.93 0.91 0.91 0.86 0.80 0.81 0.83 0.82 0.79 0.76 0.79
0.50 0.48 0.47 0.45 0.44 0.42 0.43 0.42 0.41 0.40 0.43 0.35 0.30 0.32 0.39 0.37 0.37 0.37 0.43 0.43 0.29 0.23 0.22 0.23 0.33 0.25 0.21 0.21 0.24 0.32 0.34 0.34 0.26 0.28 0.31 0.42 0.39 0.37 0.36 0.36 0.36 0.31 0.24 0.14 0.18 0.21 0.23 0.20 0.23 0.24 0.27 0.29 0.32 0.36 0.39 0.45 0.48 0.48 0.50 0.47 0.45 0.42 0.45 0.53 0.63 0.76 0.76 0.71 0.65 0.69 0.73 0.75 0.76 0.83 0.96 0.98 0.99 0.96 0.94 0.93 0.92 0.87 0.81 0.81 0.81 0.80 0.77 0.76
0.51 0.49 0.47 0.45 0.44 0.42 0.41 0.41 0.40 0.41 0.44 0.35 0.32 0.28 0.19 0.21 0.17 0.18 0.22 0.22 0.23 0.25 0.24 0.22 0.21 0.20 0.20 0.22 0.25 0.24 0.21 0.25 0.29 0.28 0.30 0.44 0.38 0.35 0.30 0.32 0.30 0.23 0.22 0.19 0.19 0.22 0.22 0.17 0.22 0.26 0.29 0.31 0.32 0.36 0.40 0.44 0.47 0.48 0.48 0.44 0.42 0.43 0.43 0.52 0.64 0.80 0.78 0.64 0.65 0.69 0.70 0.73 0.78 0.83 0.95 1.01 0.97 0.92 0.93 0.93 0.93 0.93 0.89 0.83 0.81 0.79 0.79 0.78
0.52 0.50 0.48 0.46 0.45 0.41 0.40 0.40 0.39 0.44 0.41 0.38 0.34 0.23 0.25 0.25 0.29 0.30 0.27 0.16 0.21 0.23 0.23 0.23 0.23 0.20 0.22 0.21 0.23 0.25 0.25 0.20 0.22 0.25 0.33 0.39 0.37 0.27 0.30 0.28 0.25 0.22 0.23 0.20 0.20 0.18 0.17 0.15 0.19 0.26 0.31 0.34 0.34 0.35 0.39 0.41 0.42 0.46 0.45 0.43 0.43 0.42 0.49 0.64 0.74 0.80 0.79 0.66 0.63 0.74 0.68 0.71 0.79 0.84 0.93 0.96 0.95 0.96 1.00 0.99 0.98 0.98 0.93 0.89 0.85 0.83 0.81 0.81
0.53 0.51 0.49 0.47 0.45 0.42 0.39 0.38 0.39 0.46 0.37 0.32 0.27 0.28 0.27 0.34 0.34 0.32 0.27 0.22 0.17 0.23 0.22 0.22 0.20 0.19 0.19 0.23 0.25 0.28 0.20 0.18 0.18 0.23 0.27 0.32 0.35 0.30 0.34 0.25 0.25 0.24 0.24 0.20 0.16 0.16 0.13 0.15 0.20 0.25 0.29 0.30 0.30 0.33 0.37 0.41 0.42 0.43 0.43 0.42 0.39 0.46 0.48 0.56 0.68 0.74 0.78 0.66 0.65 0.71 0.69 0.72 0.80 0.85 0.87 0.95 0.95 0.97 1.02 1.04 1.03 1.06 1.03 0.96 0.88 0.85 0.83 0.83
0.54 0.52 0.52 0.50 0.48 0.43 0.39 0.37 0.43 0.43 0.34 0.32 0.31 0.30 0.36 0.37 0.33 0.31 0.27 0.20 0.15 0.17 0.20 0.23 0.23 0.21 0.21 0.21 0.29 0.27 0.23 0.23 0.23 0.22 0.30 0.29 0.28 0.31 0.32 0.27 0.25 0.24 0.24 0.20 0.15 0.14 0.13 0.15 0.20 0.24 0.27 0.28 0.28 0.32 0.35 0.38 0.38 0.42 0.43 0.43 0.42 0.45 0.54 0.59 0.61 0.68 0.78 0.74 0.74 0.72 0.69 0.69 0.74 0.73 0.76 0.87 0.95 0.95 0.98 1.02 1.03 1.07 1.10 1.11 1.03 0.97 0.92 0.89
0.55 0.54 0.53 0.51 0.49 0.47 0.37 0.39 0.35 0.30 0.32 0.35 0.33 0.37 0.39 0.36 0.34 0.33 0.25 0.21 0.21 0.19 0.29 0.26 0.27 0.26 0.29 0.38 0.37 0.28 0.28 0.29 0.28 0.28 0.30 0.27 0.28 0.28 0.26 0.33 0.28 0.22 0.24 0.23 0.17 0.14 0.15 0.19 0.21 0.21 0.26 0.30 0.30 0.29 0.31 0.34 0.35 0.39 0.42 0.44 0.46 0.49 0.55 0.55 0.61 0.66 0.61 0.60 0.67 0.64 0.52 0.51 0.64 0.68 0.71 0.82 0.89 0.85 0.92 0.92 0.95 1.00 1.03 1.09 1.04 0.98 0.99 0.98
0.57 0.55 0.55 0.52 0.51 0.49 0.40 0.37 0.35 0.31 0.29 0.31 0.35 0.40 0.41 0.36 0.36 0.34 0.32 0.20 0.13 0.16 0.23 0.20 0.32 0.27 0.38 0.31 0.37 0.34 0.35 0.26 0.34 0.32 0.32 0.28 0.32 0.27 0.29 0.27 0.27 0.23 0.24 0.23 0.18 0.15 0.15 0.22 0.21 0.21 0.24 0.27 0.27 0.27 0.32 0.36 0.34 0.35 0.38 0.45 0.48 0.49 0.51 0.57 0.57 0.61 0.51 0.46 0.62 0.70 0.49 0.45 0.60 0.61 0.66 0.75 0.79 0.85 0.89 0.85 0.90 0.97 0.99 1.03 1.06 1.00 0.98 0.98
0.59 0.56 0.55 0.55 0.52 0.53 0.35 0.26 0.33 0.34 0.28 0.31 0.35 0.36 0.35 0.35 0.39 0.40 0.25 0.20 0.16 0.25 0.20 0.32 0.30 0.34 0.40 0.39 0.37 0.36 0.20 0.24 0.35 0.34 0.31 0.32 0.26 0.32 0.26 0.25 0.27 0.28 0.31 0.27 0.20 0.14 0.17 0.20 0.20 0.19 0.21 0.24 0.25 0.26 0.29 0.33 0.34 0.32 0.41 0.45 0.47 0.46 0.50 0.56 0.60 0.58 0.54 0.60 0.67 0.72 0.65 0.50 0.51 0.59 0.69 0.79 0.74 0.76 0.82 0.81 0.83 0.90 0.96 0.97 1.04 1.05 0.99 0.99
0.60 0.57 0.55 0.56 0.53 0.52 0.44 0.40 0.35 0.29 0.28 0.36 0.37 0.36 0.37 0.37 0.39 0.46 0.25 0.12 0.12 0.31 0.25 0.27 0.37 0.48 0.38 0.39 0.40 0.29 0.31 0.32 0.25 0.31 0.31 0.34 0.31 0.30 0.26 0.27 0.25 0.22 0.28 0.25 0.13 0.17 0.16 0.16 0.17 0.18 0.18 0.21 0.23 0.27 0.31 0.33 0.32 0.34 0.42 0.44 0.46 0.48 0.51 0.53 0.57 0.56 0.57 0.57 0.52 0.59 0.66 0.53 0.50 0.60 0.75 0.80 0.72 0.73 0.75 0.77 0.81 0.84 0.92 0.96 0.99 1.05 1.03 1.01
0.59 0.57 0.55 0.54 0.54 0.52 0.54 0.46 0.39 0.31 0.37 0.38 0.37 0.37 0.37 0.39 0.33 0.26 0.23 0.13 0.26 0.19 0.40 0.28 0.43 0.37 0.36 0.38 0.33 0.32 0.30 0.31 0.24 0.35 0.33 0.33 0.33 0.36 0.24 0.27 0.31 0.29 0.28 0.23 0.16 0.19 0.19 0.16 0.16 0.17 0.18 0.19 0.24 0.27 0.32 0.34 0.32 0.38 0.45 0.50 0.49 0.49 0.49 0.50 0.52 0.55 0.56 0.52 0.46 0.55 0.62 0.51 0.46 0.54 0.64 0.75 0.68 0.66 0.67 0.72 0.76 0.80 0.83 0.90 0.95 1.01 1.07 1.06
0.61 0.57 0.55 0.55 0.53 0.54 0.57 0.53 0.41 0.40 0.40 0.42 0.39 0.38 0.39 0.38 0.32 0.19 0.18 0.12 0.26 0.18 0.25 0.30 0.29 0.28 0.33 0.28 0.27 0.31 0.27 0.30 0.31 0.35 0.34 0.26 0.28 0.33 0.33 0.34 0.32 0.30 0.29 0.28 0.22 0.22 0.24 0.22 0.19 0.16 0.17 0.21 0.25 0.27 0.31 0.34 0.38 0.42 0.43 0.42 0.43 0.45 0.47 0.48 0.50 0.55 0.53 0.46 0.49 0.58 0.59 0.56 0.40 0.46 0.53 0.59 0.61 0.58 0.60 0.68 0.76 0.81 0.82 0.83 0.89 0.96 1.02 1.06
0.60 0.57 0.53 0.55 0.48 0.50 0.50 0.39 0.43 0.45 0.46 0.44 0.41 0.36 0.38 0.36 0.24 0.19 0.14 0.17 0.27 0.27 0.30 0.28 0.26 0.30 0.28 0.25 0.23 0.30 0.26 0.28 0.29 0.31 0.28 0.28 0.26 0.27 0.28 0.25 0.34 0.30 0.28 0.25 0.21 0.22 0.25 0.22 0.18 0.17 0.19 0.21 0.26 0.27 0.31 0.35 0.40 0.39 0.39 0.38 0.41 0.43 0.49 0.47 0.47 0.51 0.43 0.40 0.53 0.56 0.49 0.57 0.41 0.38 0.47 0.58 0.67 0.65 0.60 0.57 0.61 0.70 0.78 0.79 0.86 0.91 0.97 1.03
0.60 0.57 0.52 0.51 0.50 0.58 0.43 0.36 0.48 0.48 0.45 0.44 0.36 0.30 0.30 0.23 0.24 0.17 0.17 0.33 0.18 0.24 0.22 0.24 0.28 0.27 0.25 0.25 0.23 0.22 0.24 0.26 0.29 0.27 0.26 0.23 0.23 0.21 0.22 0.20 0.23 0.20 0.20 0.21 0.19 0.22 0.22 0.21 0.18 0.17 0.19 0.19 0.22 0.26 0.31 0.35 0.37 0.37 0.37 0.38 0.34 0.36 0.38 0.34 0.40 0.37 0.36 0.36 0.45 0.48 0.49 0.44 0.44 0.45 0.51 0.54 0.61 0.65 0.63 0.58 0.57 0.63 0.86 0.88 0.84 0.87 0.94 1.00
0.61 0.56 0.53 0.50 0.53 0.52 0.52 0.50 0.52 0.50 0.47 0.42 0.33 0.29 0.25 0.21 0.17 0.21 0.21 0.24 0.19 0.28 0.26 0.30 0.27 0.25 0.25 0.23 0.23 0.24 0.24 0.19 0.30 0.27 0.28 0.27 0.23 0.23 0.24 0.22 0.27 0.20 0.17 0.22 0.21 0.20 0.19 0.25 0.23 0.19 0.19 0.18 0.21 0.20 0.22 0.25 0.29 0.34 0.33 0.34 0.32 0.29 0.29 0.26 0.31 0.37 0.38 0.42 0.45 0.47 0.50 0.40 0.46 0.52 0.55 0.51 0.57 0.64 0.64 0.61 0.61 0.66 0.71 0.90 0.89 0.87 0.92 0.97
0.63 0.58 0.53 0.53 0.56 0.58 0.60 0.63 0.59 0.56 0.46 0.40 0.29 0.25 0.24 0.19 0.18 0.26 0.23 0.24 0.24 0.29 0.31 0.29 0.29 0.29 0.26 0.23 0.25 0.24 0.21 0.24 0.26 0.26 0.26 0.26 0.23 0.21 0.22 0.23 0.27 0.25 0.23 0.27 0.18 0.19 0.16 0.17 0.18 0.19 0.15 0.18 0.16 0.19 0.22 0.26 0.29 0.32 0.35 0.35 0.33 0.32 0.30 0.26 0.28 0.27 0.26 0.31 0.36 0.45 0.44 0.36 0.34 0.37 0.50 0.54 0.57 0.57 0.57 0.56 0.58 0.63 0.66 0.74 0.91 0.91 0.88 0.92
0.62 0.61 0.59 0.57 0.62 0.65 0.66 0.68 0.67 0.59 0.47 0.35 0.26 0.24 0.20 0.19 0.23 0.24 0.24 0.25 0.26 0.26 0.26 0.31 0.28 0.26 0.25 0.26 0.26 0.27 0.24 0.23 0.27 0.26 0.25 0.25 0.23 0.21 0.22 0.21 0.25 0.29 0.26 0.20 0.25 0.21 0.17 0.16 0.19 0.20 0.20 0.21 0.15 0.17 0.23 0.28 0.30 0.32 0.34 0.37 0.34 0.33 0.39 0.31 0.33 0.32 0.33 0.31 0.33 0.40 0.38 0.38 0.36 0.48 0.65 0.60 0.56 0.55 0.54 0.54 0.58 0.60 0.64 0.67 0.76 0.82 0.85 0.89
0.63 0.58 0.59 0.57 0.60 0.67 0.68 0.68 0.69 0.63 0.46 0.32 0.24 0.21 0.20 0.22 0.23 0.26 0.26 0.29 0.27 0.25 0.24 0.24 0.24 0.22 0.21 0.22 0.25 0.25 0.30 0.22 0.29 0.27 0.26 0.25 0.27 0.24 0.26 0.25 0.24 0.27 0.26 0.20 0.27 0.21 0.20 0.16 0.20 0.23 0.20 0.19 0.18 0.17 0.19 0.29 0.23 0.29 0.32 0.30 0.32 0.41 0.40 0.35 0.36 0.40 0.36 0.36 0.27 0.36 0.44 0.37 0.42 0.50 0.57 0.55 0.52 0.50 0.53 0.53 0.53 0.52 0.58 0.62 0.65 0.72 0.78 0.84
0.58 0.60 0.52 0.52 0.62 0.73 0.74 0.71 0.68 0.61 0.49 0.33 0.24 0.20 0.22 0.24 0.26 0.27 0.36 0.37 0.29 0.29 0.26 0.21 0.21 0.20 0.18 0.18 0.20 0.23 0.25 0.24 0.26 0.26 0.23 0.27 0.24 0.26 0.27 0.28 0.31 0.29 0.28 0.30 0.26 0.27 0.19 0.18 0.21 0.21 0.18 0.19 0.23 0.19 0.18 0.24 0.30 0.33 0.27 0.29 0.39 0.44 0.42 0.38 0.31 0.36 0.34 0.29 0.28 0.32 0.37 0.37 0.33 0.30 0.45 0.47 0.44 0.45 0.46 0.46 0.48 0.54 0.61 0.58 0.59 0.64 0.69 0.74
0.58 0.57 0.56 0.59 0.70 0.74 0.78 0.75 0.70 0.58 0.46 0.33 0.25 0.24 0.25 0.23 0.26 0.27 0.34 0.39 0.34 0.30 0.26 0.24 0.23 0.25 0.22 0.20 0.20 0.22 0.26 0.21 0.22 0.24 0.23 0.28 0.22 0.29 0.27 0.29 0.33 0.30 0.30 0.33 0.26 0.30 0.27 0.18 0.21 0.21 0.19 0.20 0.21 0.20 0.17 0.19 0.26 0.30 0.31 0.37 0.31 0.30 0.30 0.37 0.34 0.28 0.30 0.25 0.25 0.30 0.34 0.37 0.37 0.33 0.41 0.44 0.45 0.44 0.45 0.46 0.46 0.52 0.56 0.53 0.57 0.61 0.66 0.72
0.58 0.54 0.48 0.67 0.72 0.73 0.72 0.73 0.68 0.56 0.42 0.32 0.28 0.26 0.27 0.26 0.26 0.27 0.29 0.30 0.31 0.32 0.28 0.27 0.26 0.30 0.27 0.25 0.24 0.27 0.27 0.20 0.24 0.24 0.22 0.28 0.23 0.29 0.27 0.30 0.32 0.33 0.34 0.35 0.27 0.30 0.29 0.18 0.19 0.23 0.21 0.20 0.17 0.17 0.14 0.15 0.21 0.26 0.33 0.36 0.38 0.35 0.33 0.32 0.35 0.33 0.34 0.27 0.27 0.24 0.31 0.30 0.39 0.38 0.43 0.45 0.45 0.45 0.45 0.44 0.45 0.50 0.53 0.56 0.57 0.61 0.63 0.68
0.47 0.43 0.38 0.69 0.71 0.73 0.69 0.65 0.58 0.54 0.43 0.31 0.30 0.30 0.31 0.28 0.28 0.28 0.27 0.26 0.25 0.26 0.26 0.25 0.28 0.26 0.29 0.27 0.28 0.28 0.29 0.24 0.24 0.25 0.23 0.29 0.25 0.36 0.31 0.32 0.31 0.34 0.34 0.36 0.33 0.34 0.29 0.27 0.17 0.22 0.24 0.21 0.15 0.15 0.13 0.14 0.16 0.17 0.21 0.27 0.31 0.32 0.37 0.38 0.37 0.35 0.32 0.27 0.27 0.25 0.25 0.28 0.36 0.43 0.41 0.44 0.47 0.48 0.46 0.44 0.45 0.48 0.49 0.53 0.58 0.56 0.60 0.65
0.50 0.44 0.44 0.66 0.71 0.71 0.65 0.61 0.48 0.43 0.40 0.39 0.36 0.32 0.31 0.29 0.30 0.30 0.29 0.27 0.25 0.26 0.24 0.24 0.24 0.23 0.25 0.26 0.26 0.30 0.28 0.26 0.25 0.23 0.24 0.26 0.26 0.25 0.32 0.33 0.32 0.33 0.37 0.37 0.34 0.35 0.30 0.27 0.18 0.21 0.21 0.16 0.16 0.18 0.13 0.13 0.17 0.17 0.19 0.20 0.27 0.31 0.31 0.28 0.27 0.40 0.39 0.31 0.26 0.25 0.23 0.32 0.40 0.48 0.42 0.44 0.48 0.46 0.47 0.45 0.45 0.46 0.46 0.50 0.60 0.59 0.60 0.66
0.43 0.33 0.48 0.60 0.65 0.58 0.52 0.42 0.43 0.46 0.42 0.39 0.36 0.35 0.33 0.36 0.32 0.30 0.29 0.28 0.26 0.24 0.26 0.26 0.26 0.25 0.24 0.23 0.25 0.26 0.26 0.27 0.27 0.26 0.25 0.23 0.27 0.28 0.35 0.36 0.35 0.36 0.34 0.32 0.32 0.38 0.35 0.34 0.26 0.21 0.23 0.20 0.18 0.19 0.20 0.15 0.15 0.18 0.21 0.18 0.23 0.28 0.31 0.30 0.26 0.30 0.35 0.33 0.34 0.31 0.27 0.31 0.40 0.45 0.47 0.46 0.44 0.43 0.44 0.45 0.44 0.45 0.46 0.49 0.64 0.64 0.65 0.69
0.39 0.34 0.40 0.44 0.55 0.58 0.50 0.41 0.41 0.39 0.38 0.39 0.42 0.42 0.42 0.39 0.36 0.35 0.30 0.28 0.26 0.26 0.24 0.24 0.24 0.24 0.26 0.25 0.25 0.25 0.26 0.25 0.26 0.24 0.24 0.24 0.24 0.28 0.34 0.35 0.36 0.36 0.36 0.35 0.37 0.39 0.40 0.33 0.29 0.26 0.28 0.28 0.26 0.22 0.20 0.20 0.16 0.14 0.17 0.21 0.21 0.21 0.25 0.27 0.29 0.32 0.31 0.32 0.34 0.32 0.26 0.30 0.40 0.45 0.43 0.43 0.42 0.41 0.41 0.43 0.45 0.47 0.44 0.49 0.64 0.61 0.66 0.72
0.40 0.36 0.36 0.54 0.62 0.63 0.47 0.35 0.35 0.37 0.39 0.41 0.39 0.37 0.40 0.39 0.37 0.34 0.32 0.32 0.28 0.27 0.25 0.24 0.25 0.26 0.24 0.26 0.26 0.23 0.24 0.20 0.23 0.23 0.22 0.23 0.22 0.28 0.31 0.34 0.36 0.33 0.33 0.35 0.32 0.40 0.31 0.34 0.31 0.27 0.26 0.27 0.29 0.29 0.24 0.24 0.21 0.15 0.13 0.16 0.20 0.21 0.23 0.26 0.29 0.33 0.29 0.30 0.33 0.32 0.22 0.29 0.41 0.46 0.47 0.44 0.40 0.37 0.36 0.38 0.41 0.44 0.46 0.48 0.60 0.61 0.62 0.68
0.41 0.44 0.44 0.44 0.56 0.57 0.41 0.44 0.42 0.42 0.46 0.46 0.48 0.47 0.44 0.41 0.41 0.43 0.42 0.38 0.34 0.29 0.27 0.26 0.26 0.26 0.25 0.25 0.24 0.24 0.24 0.22 0.21 0.25 0.24 0.23 0.23 0.26 0.31 0.36 0.38 0.35 0.36 0.41 0.44 0.42 0.32 0.34 0.31 0.24 0.21 0.19 0.18 0.19 0.19 0.20 0.19 0.18 0.16 0.14 0.15 0.17 0.20 0.23 0.22 0.25 0.24 0.28 0.33 0.30 0.27 0.36 0.37 0.45 0.40 0.36 0.38 0.41 0.38 0.35 0.38 0.43 0.47 0.48 0.58 0.62 0.64 0.69
0.38 0.31 0.37 0.38 0.56 0.56 0.50 0.46 0.42 0.44 0.44 0.44 0.43 0.44 0.43 0.38 0.42 0.42 0.40 0.38 0.41 0.40 0.34 0.34 0.32 0.30 0.28 0.27 0.24 0.25 0.24 0.24 0.23 0.23 0.25 0.25 0.25 0.29 0.33 0.36 0.40 0.40 0.48 0.48 0.49 0.47 0.36 0.36 0.35 0.30 0.26 0.23 0.24 0.26 0.30 0.29 0.26 0.19 0.17 0.14 0.14 0.15 0.17 0.20 0.22 0.22 0.20 0.26 0.31 0.33 0.35 0.37 0.35 0.37 0.40 0.39 0.35 0.34 0.34 0.36 0.34 0.38 0.47 0.51 0.54 0.58 0.60 0.64
0.46 0.35 0.35 0.36 0.45 0.42 0.40 0.46 0.45 0.48 0.42 0.48 0.42 0.46 0.42 0.43 0.45 0.45 0.48 0.38 0.38 0.36 0.39 0.38 0.39 0.36 0.32 0.31 0.28 0.26 0.26 0.24 0.25 0.24 0.26 0.29 0.30 0.30 0.40 0.40 0.42 0.47 0.48 0.47 0.58 0.53 0.44 0.38 0.38 0.35 0.32 0.31 0.32 0.32 0.34 0.32 0.27 0.26 0.21 0.17 0.15 0.15 0.16 0.14 0.14 0.17 0.23 0.26 0.25 0.29 0.35 0.34 0.35 0.40 0.37 0.41 0.39 0.38 0.35 0.35 0.36 0.42 0.49 0.49 0.49 0.56 0.56 0.63
0.35 0.40 0.45 0.54 0.42 0.33 0.39 0.42 0.54 0.51 0.52 0.50 0.44 0.46 0.43 0.41 0.42 0.39 0.47 0.47 0.43 0.40 0.33 0.36 0.38 0.40 0.40 0.35 0.33 0.29 0.30 0.29 0.29 0.26 0.27 0.28 0.31 0.33 0.33 0.36 0.37 0.44 0.49 0.51 0.60 0.56 0.50 0.40 0.44 0.42 0.37 0.35 0.34 0.33 0.33 0.33 0.31 0.29 0.27 0.21 0.19 0.18 0.18 0.15 0.14 0.16 0.20 0.20 0.22 0.31 0.37 0.34 0.36 0.35 0.36 0.39 0.38 0.39 0.36 0.36 0.34 0.35 0.38 0.53 0.58 0.54 0.54 0.59
0.42 0.42 0.42 0.47 0.35 0.38 0.39 0.40 0.39 0.37 0.38 0.43 0.44 0.44 0.40 0.40 0.39 0.43 0.46 0.51 0.50 0.44 0.42 0.34 0.34 0.36 0.38 0.39 0.39 0.34 0.33 0.29 0.29 0.32 0.32 0.31 0.30 0.29 0.27 0.31 0.36 0.41 0.45 0.46 0.50 0.57 0.55 0.48 0.48 0.46 0.41 0.40 0.38 0.36 0.35 0.32 0.31 0.31 0.29 0.28 0.26 0.21 0.18 0.17 0.17 0.16 0.15 0.17 0.20 0.29 0.36 0.34 0.31 0.30 0.33 0.35 0.37 0.39 0.36 0.37 0.35 0.33 0.39 0.52 0.55 0.54 0.53 0.58
0.37 0.37 0.36 0.45 0.42 0.37 0.34 0.31 0.31 0.30 0.29 0.35 0.33 0.39 0.41 0.41 0.40 0.45 0.52 0.50 0.45 0.44 0.47 0.38 0.38 0.42 0.39 0.36 0.39 0.43 0.44 0.43 0.41 0.36 0.37 0.35 0.36 0.34 0.29 0.30 0.33 0.38 0.42 0.42 0.49 0.60 0.50 0.45 0.46 0.46 0.42 0.40 0.40 0.39 0.38 0.35 0.32 0.29 0.30 0.29 0.28 0.25 0.21 0.21 0.19 0.17 0.16 0.14 0.14 0.20 0.26 0.26 0.33 0.28 0.30 0.30 0.32 0.37 0.35 0.33 0.31 0.32 0.45 0.48 0.53 0.53 0.55 0.57
0.47 0.49 0.46 0.36 0.30 0.32 0.34 0.34 0.33 0.34 0.32 0.33 0.31 0.31 0.32 0.36 0.40 0.47 0.45 0.51 0.46 0.45 0.50 0.46 0.48 0.51 0.53 0.51 0.50 0.47 0.49 0.52 0.53 0.50 0.58 0.48 0.35 0.43 0.36 0.36 0.40 0.43 0.46 0.45 0.50 0.57 0.54 0.47 0.53 0.48 0.39 0.34 0.36 0.36 0.35 0.37 0.36 0.31 0.29 0.29 0.28 0.27 0.23 0.20 0.19 0.20 0.18 0.16 0.17 0.17 0.17 0.20 0.31 0.32 0.31 0.30 0.30 0.31 0.32 0.34 0.38 0.40 0.43 0.49 0.51 0.51 0.53 0.56
0.54 0.56 0.52 0.42 0.30 0.34 0.32 0.34 0.32 0.30 0.26 0.29 0.32 0.34 0.38 0.40 0.46 0.44 0.38 0.44 0.50 0.55 0.57 0.54 0.54 0.51 0.52 0.51 0.48 0.51 0.56 0.53 0.49 0.48 0.50 0.51 0.49 0.47 0.48 0.50 0.50 0.45 0.47 0.50 0.57 0.52 0.56 0.53 0.49 0.47 0.39 0.37 0.39 0.36 0.34 0.35 0.34 0.30 0.28 0.29 0.30 0.29 0.28 0.26 0.23 0.23 0.22 0.20 0.19 0.18 0.16 0.22 0.28 0.26 0.28 0.29 0.26 0.26 0.31 0.33 0.34 0.37 0.45 0.50 0.51 0.49 0.52 0.56
Wind_Speed
14 14 14 14 14 14 14 14 14 14 14 14 14 15 15 15 15 15 15 15 15 15 14 14 13 13 12 12 12 12 11 10 9 9 9 9 8 9 10 12 14 15 15 15 16 16 15 14 13 11 10 8 8 7 7 6 6 5 3 2 2 2 3 3 4 3 4 6 7 7 7 6 7 7 7 7 7 9 10 9 10 9 7 10 11 14 16 16
15 15 15 15 15 15 15 15 15 15 15 15 15 15 15 15 15 15 15 15 15 15 15 14 14 13 13 13 12 12 12 11 10 10 9 8 7 8 10 12 15 16 16 16 17 17 16 15 14 13 11 9 8 8 8 7 7 6 3 2 2 2 3 3 4 4 3 6 7 7 7 6 7 8 7 8 8 9 9 9 10 10 10 11 13 15 16 16
15 15 15 15 15 15 15 15 15 15 15 15 15 15 15 15 15 15 15 15 15 16 16 15 15 14 13 13 12 12 11 11 11 9 7 6 6 7 8 12 16 17 17 17 17 17 16 16 15 14 12 10 9 9 9 8 8 6 4 3 3 2 2 2 3 4 4 5 8 7 7 7 7 8 7 8 8 9 9 9 11 11 12 13 15 16 16 16
16 16 16 16 16 16 16 16 16 16 16 16 16 16 16 16 16 16 15 15 15 15 16 16 15 15 14 13 12 12 11 12 9 6 6 6 7 6 8 11 15 18 17 16 17 17 16 16 16 15 13 11 11 10 10 9 8 6 6 4 3 2 2 2 3 4 4 5 8 7 7 7 8 7 7 8 8 8 8 9 10 11 13 15 16 16 16 17
16 16 16 16 16 16 16 16 16 16 16 16 16 16 16 16 16 16 16 16 16 16 15 16 15 15 14 13 12 11 11 9 6 6 6 7 7 7 8 11 15 18 17 16 17 17 17 16 16 15 14 12 12 11 11 11 9 7 7 7 4 2 1 2 3 5 5 6 8 8 7 8 8 8 8 9 8 6 8 10 10 11 13 15 16 16 17 17
16 16 17 17 17 17 17 17 17 16 16 16 16 16 17 17 16 16 16 16 16 16 15 15 15 15 14 13 12 11 11 9 7 8 8 8 8 8 9 11 14 17 17 16 17 18 17 17 17 16 14 13 13 13 11 12 11 8 8 8 6 4 3 2 3 5 6 7 7 8 8 8 8 8 8 9 7 5 7 10 10 12 13 15 17 16 16 17
17 17 17 17 17 17 17 18 17 17 17 17 17 17 17 17 17 17 17 17 16 16 16 15 15 14 14 13 13 12 13 13 12 11 9 9 9 8 9 12 13 16 17 17 18 18 18 18 18 17 15 14 14 14 12 11 12 10 9 9 8 6 5 4 4 6 7 7 8 8 8 9 9 8 8 10 8 5 7 10 11 12 14 15 17 16 16 16
17 17 17 17 17 18 18 18 18 18 18 18 18 17 17 17 17 17 17 17 17 16 16 15 14 13 13 13 13 13 14 14 13 12 10 10 10 9 10 12 14 16 17 18 19 19 19 19 19 17 16 15 14 13 12 11 12 12 11 9 8 7 6 5 5 6 8 8 9 9 8 9 9 8 8 10 9 6 7 10 11 13 14 15 16 16 16 16
18 18 18 18 18 18 18 18 18 18 18 18 18 18 18 18 18 18 18 17 17 16 16 15 14 12 12 12 14 15 14 13 12 12 12 11 11 11 11 12 15 16 17 19 19 20 20 20 20 18 16 15 14 13 13 12 10 11 12 11 10 9 8 7 7 8 8 9 10 10 9 8 8 7 7 10 9 8 9 11 12 13 15 15 16 16 16 16
18 19 19 19 19 19 19 19 19 19 19 19 19 19 19 19 19 19 18 18 17 16 15 14 13 12 12 12 13 14 13 13 13 13 13 13 12 12 13 13 15 17 18 19 20 21 21 20 20 19 16 15 15 14 13 13 9 9 11 11 10 9 8 8 8 9 9 10 11 10 9 9 8 6 6 9 10 9 10 11 12 13 14 15 16 16 16 16
19 19 19 19 19 19 19 19 19 19 19 19 19 19 19 19 19 19 19 18 17 16 15 14 13 12 12 12 13 14 13 14 15 15 15 15 14 14 14 14 15 17 19 20 21 22 22 21 20 19 16 15 15 14 14 14 11 10 9 10 10 8 8 9 9 10 10 10 12 11 9 9 8 7 6 9 11 10 11 11 12 13 14 15 16 16 15 15
19 19 20 20 20 20 20 20 20 20 20 20 20 20 20 20 20 19 19 18 17 16 14 14 12 12 13 13 14 15 14 15 16 16 17 17 17 17 16 16 17 18 19 20 21 22 23 22 21 21 17 14 15 14 13 14 13 12 11 10 9 9 9 10 10 11 12 11 12 11 8 8 9 9 8 10 12 12 12 12 12 12 13 14 15 16 15 15
20 20 20 20 20 20 20 21 21 21 21 20 20 20 20 20 20 19 19 17 16 15 14 13 12 12 13 13 14 15 16 16 18 18 18 18 19 18 17 17 17 18 19 21 21 22 23 22 22 23 19 15 15 13 11 14 14 12 12 11 9 9 10 11 11 13 13 11 13 12 7 7 9 11 10 11 12 12 12 12 13 12 13 14 14 15 15 16
20 21 21 21 21 21 21 21 22 22 22 22 21 21 21 20 20 19 18 17 15 15 14 13 12 13 14 14 14 15 14 15 17 18 17 18 18 18 18 17 17 18 19 20 20 21 22 22 22 22 20 18 14 13 13 13 13 13 13 12 11 9 9 11 12 14 13 11 14 13 7 6 8 11 12 11 13 13 13 13 13 13 13 13 14 14 15 16
21 21 22 22 22 22 22 22 23 23 23 23 22 22 21 20 20 18 17 16 15 14 13 13 13 13 14 16 14 12 12 12 14 16 16 16 18 18 18 18 17 18 19 20 20 21 22 21 21 21 21 20 16 15 15 13 13 14 13 12 12 11 9 12 13 14 14 12 14 13 8 6 7 11 12 12 13 12 12 13 13 13 13 14 14 14 14 15
21 22 22 22 22 23 23 23 23 23 24 23 23 22 21 20 19 18 16 15 14 14 13 13 13 14 15 14 12 11 11 11 12 14 15 15 17 19 19 18 17 18 19 20 19 20 22 21 21 21 20 21 19 17 16 15 14 14 15 13 13 12 11 12 13 15 15 12 15 14 10 7 7 11 12 12 13 12 12 12 13 13 13 14 14 14 14 14
22 22 22 22 23 23 23 24 24 24 24 24 23 23 21 20 18 17 16 15 15 14 14 14 13 14 16 14 13 12 11 11 11 12 15 16 17 19 20 19 19 19 19 19 20 21 23 22 21 21 19 19 20 19 17 17 17 15 16 14 13 13 12 12 13 15 16 14 15 15 12 8 7 11 12 11 12 12 12 12 13 13 13 14 14 14 15 15
22 23 23 23 23 24 24 24 24 24 24 24 23 23 21 19 18 17 16 16 15 14 15 14 13 14 14 13 13 12 11 11 12 14 16 17 18 20 21 20 20 20 20 20 21 22 23 23 22 20 20 21 21 21 20 19 18 16 16 15 14 13 13 13 13 15 17 15 15 16 15 12 9 10 11 11 12 12 12 12 12 13 13 14 14 15 15 15
23 23 23 24 24 24 24 24 24 24 24 23 22 21 19 18 18 17 17 16 15 15 15 14 14 14 13 12 13 13 13 14 16 16 16 16 17 20 21 21 21 22 22 21 22 24 23 23 23 22 22 23 23 23 22 20 18 17 17 16 15 14 14 15 14 15 17 16 15 16 15 14 13 11 11 12 11 11 11 11 11 12 13 13 14 14 15 16
24 24 24 25 25 25 25 25 25 24 23 21 20 19 17 17 18 17 16 18 19 19 19 17 17 18 18 17 16 16 16 17 17 17 17 17 17 20 22 22 23 23 23 22 23 25 25 24 24 23 23 24 25 24 23 21 18 17 17 17 17 15 14 16 16 16 17 15 15 16 15 15 14 12 11 12 12 11 11 11 12 12 12 13 14 15 15 16
25 25 25 26 26 26 26 25 25 23 21 20 19 18 16 16 17 17 17 20 21 21 22 21 20 21 20 19 17 16 16 16 17 17 17 18 19 20 21 23 24 23 24 24 23 24 26 26 25 25 25 24 25 25 24 22 19 17 17 17 17 16 14 16 16 16 17 16 14 16 16 15 15 13 12 13 13 12 12 12 12 13 13 13 14 15 15 15
25 25 26 26 26 27 26 26 25 23 21 19 19 17 15 15 17 17 19 20 20 21 22 22 21 22 21 20 19 17 17 17 18 18 18 18 20 20 21 24 25 24 25 26 24 25 26 27 26 26 26 25 25 26 26 25 22 18 18 17 17 16 14 15 16 16 17 16 14 16 16 15 15 15 14 14 14 13 14 14 13 13 13 14 14 15 15 15
26 26 26 26 27 27 26 26 24 21 20 19 18 16 15 16 17 18 19 19 20 20 20 21 21 21 21 20 18 17 18 18 18 19 19 20 22 21 21 23 25 25 27 28 27 26 26 27 27 27 27 27 26 27 27 25 23 20 19 18 17 17 15 16 17 17 18 16 14 15 15 15 15 16 16 16 16 15 15 15 14 14 14 14 15 15 15 16
27 27 26 27 27 27 27 26 22 20 20 20 18 16 16 17 18 18 19 19 19 18 19 19 19 20 19 17 16 16 17 17 17 18 20 21 21 22 22 23 25 26 27 29 30 29 27 26 27 28 28 28 27 27 28 25 23 22 22 20 18 17 18 18 17 17 17 17 16 15 15 15 16 17 17 16 16 16 16 16 16 15 15 15 15 16 16 16
28 28 27 27 27 28 28 24 20 20 21 19 17 16 17 18 19 19 19 19 18 16 16 18 18 18 17 15 15 15 15 15 16 18 19 22 22 21 21 23 24 26 28 30 31 30 29 26 26 29 29 29 28 27 28 26 23 23 24 23 21 18 19 20 19 18 18 17 17 17 15 15 16 18 18 16 16 16 16 16 17 16 16 16 16 16 16 17
30 29 28 28 27 28 27 22 20 22 21 18 17 18 19 19 19 19 18 18 18 15 15 16 16 15 15 15 15 14 14 14 15 17 18 21 23 21 20 22 23 25 27 28 29 29 29 27 27 29 30 31 30 28 28 28 24 23 23 24 24 21 20 21 21 20 19 17 17 18 16 15 15 17 18 17 17 17 17 17 18 17 17 17 17 16 16 17
31 30 30 29 28 27 24 22 23 23 20 18 18 19 19 19 19 18 17 18 17 14 13 15 15 14 15 15 15 14 13 12 13 16 18 20 23 23 21 21 22 25 25 25 28 29 30 30 28 30 31 31 31 29 29 29 26 23 21 23 25 24 21 21 22 21 20 17 16 18 18 16 16 17 17 17 18 18 18 18 18 18 18 18 18 17 17 17
31 31 31 29 29 27 25 25 25 23 21 20 20 20 20 19 19 17 17 17 15 12 12 13 13 14 15 15 17 16 14 13 13 14 17 19 21 22 23 23 22 24 25 26 27 28 31 32 30 30 31 31 31 30 29 29 28 24 21 22 24 24 23 22 22 21 20 19 19 20 19 18 18 17 16 17 18 18 18 18 18 18 19 19 19 19 19 18
32 32 31 30 30 28 25 26 26 24 23 22 21 21 20 20 18 17 17 18 15 14 14 13 14 15 15 15 18 19 17 16 15 14 16 19 21 20 22 23 23 24 26 28 28 26 28 33 32 31 32 31 31 30 30 30 29 25 21 21 23 24 23 23 22 22 22 23 22 22 21 19 17 18 17 17 18 18 17 16 16 17 18 19 19 20 20 19
33 33 32 32 30 27 26 27 27 26 25 24 22 21 21 19 18 17 19 18 15 14 15 15 15 16 16 16 17 18 18 18 16 15 16 19 21 21 20 22 23 23 25 28 30 27 26 30 33 32 33 32 31 31 31 31 30 26 22 22 22 23 23 22 22 22 22 23 24 23 22 20 18 18 17 17 18 17 15 15 15 16 17 18 19 20 20 20
34 34 34 33 30 28 27 27 27 26 25 24 23 22 21 20 19 20 19 17 16 16 16 17 17 16 17 17 16 17 17 18 17 17 18 18 21 22 20 20 22 22 23 26 29 30 27 28 31 32 34 33 32 31 30 31 31 28 25 24 23 21 22 21 21 22 22 22 23 24 24 22 20 19 16 16 18 17 15 15 15 15 17 18 18 18 19 20
36 35 35 33 31 29 29 28 26 26 26 24 23 23 22 21 23 24 20 15 15 17 17 18 18 18 18 18 18 18 17 17 18 19 19 19 20 22 21 21 21 23 24 24 26 29 29 29 29 31 34 35 34 32 30 31 32 31 28 27 25 23 22 22 23 23 23 23 23 24 24 24 21 20 19 17 17 17 16 15 15 15 16 17 18 18 18 19
37 37 36 34 32 30 30 30 29 29 27 25 24 23 23 24 26 25 22 19 16 15 16 17 18 19 19 20 19 19 18 18 19 20 21 21 21 22 23 23 23 24 23 23 24 27 28 29 31 31 32 36 37 34 32 32 33 33 31 29 28 25 23 23 23 22 23 24 24 22 22 23 21 20 22 21 20 19 17 17 17 15 15 17 18 18 18 19
39 38 36 34 32 31 30 30 30 29 28 26 26 25 26 29 27 23 24 24 20 17 17 18 19 20 21 22 20 19 19 19 19 20 21 22 22 22 23 24 25 24 22 22 23 25 26 28 32 34 31 34 39 37 34 32 33 34 33 31 30 28 25 23 22 22 22 22 23 23 22 22 20 19 20 20 20 19 18 17 17 15 15 17 18 18 18 19
40 38 36 34 32 31 30 30 29 28 28 27 27 28 31 31 27 24 25 25 24 22 22 21 21 22 23 23 22 21 20 19 19 21 22 22 23 23 23 24 25 25 24 23 22 24 27 26 29 34 33 33 37 38 35 33 33 34 33 33 32 31 28 24 23 24 23 22 22 23 22 22 20 18 19 19 17 17 17 17 16 15 15 16 17 18 18 18
39 36 35 34 32 31 30 30 29 28 29 28 29 32 33 31 27 25 24 24 25 25 25 25 25 25 25 24 24 23 22 20 20 21 22 23 24 24 24 23 24 25 25 24 21 21 25 25 25 31 34 35 36 38 38 35 32 32 35 36 33 31 30 27 25 25 24 23 23 23 22 22 22 22 23 23 21 19 18 17 17 16 15 16 17 18 18 18
37 36 36 34 33 31 30 30 29 30 30 30 33 34 33 31 30 28 25 23 24 24 25 26 26 27 27 26 25 25 24 22 22 21 22 23 24 25 25 24 24 26 25 24 22 21 22 22 24 29 33 34 34 36 39 39 34 31 34 36 32 30 31 29 26 24 24 24 23 24 23 22 22 22 22 24 24 22 21 19 17 17 16 16 17 18 19 19
37 37 36 34 32 32 31 30 30 30 30 32 36 36 33 32 32 30 28 25 24 25 27 27 25 26 26 25 25 25 24 23 23 23 22 22 22 24 25 24 23 25 26 26 23 21 21 22 23 28 31 32 33 34 36 39 40 36 32 34 33 31 31 32 29 25 26 25 23 25 26 23 23 22 19 20 20 20 19 17 16 15 16 16 17 18 19 19
37 36 34 32 31 32 31 31 31 31 32 34 36 36 34 34 33 32 31 29 28 27 28 28 27 26 26 26 24 23 25 24 22 22 22 21 20 21 24 24 23 24 26 26 24 21 21 21 22 25 29 30 31 34 35 37 40 40 35 33 35 34 32 33 32 28 26 25 24 25 26 24 23 23 22 21 19 18 17 15 14 15 16 17 16 17 18 19
37 35 33 31 31 32 32 32 32 33 34 36 36 35 34 34 34 34 35 33 31 30 30 30 29 28 28 27 25 24 24 25 23 22 22 21 20 20 22 23 23 23 25 26 25 23 22 22 22 22 26 30 31 34 37 37 37 39 38 36 35 35 33 33 34 33 30 28 24 24 24 23 22 22 25 25 22 21 19 17 16 16 16 17 17 17 18 18
37 35 33 32 32 33 33 33 34 34 35 36 36 36 35 34 33 34 35 35 34 33 32 32 32 31 30 30 28 26 25 26 26 25 23 23 22 20 20 23 23 23 24 25 25 24 22 22 23 22 23 28 31 33 37 39 37 37 38 39 37 35 34 33 33 33 33 32 29 26 24 23 20 19 22 25 25 24 23 21 20 19 19 18 17 17 17 18
37 35 34 34 34 34 33 34 34 34 35 36 36 36 35 34 34 34 34 34 35 34 34 34 34 33 32 32 31 29 27 27 27 27 25 24 24 21 18 19 22 23 24 24 25 25 23 22 23 24 23 26 29 31 33 38 40 38 37 39 39 37 36 35 33 32 32 33 33 31 28 25 22 20 20 22 24 25 24 23 21 20 19 18 17 17 17 18
37 37 37 36 35 34 33 34 34 35 35 36 37 37 36 35 35 35 34 34 34 33 33 34 35 35 34 32 31 30 29 28 28 29 27 25 26 25 21 19 21 22 23 23 24 25 24 22 23 24 24 24 27 29 31 34 37 39 38 38 39 40 40 38 36 33 33 33 32 32 31 27 23 22 21 20 21 23 25 24 22 20 19 17 16 17 17 18
37 38 37 35 33 33 33 33 33 34 35 35 36 37 36 36 35 35 34 34 33 33 33 34 34 35 34 33 33 32 31 30 29 30 29 28 26 26 25 23 22 22 22 21 21 23 24 24 23 23 23 23 25 27 29 32 34 36 38 39 40 42 42 41 38 36 37 38 35 33 32 29 25 23 23 22 22 22 24 24 23 22 21 18 16 16 17 18
37 36 35 33 33 33 34 33 33 34 34 35 35 35 35 35 36 35 35 34 33 33 33 33 34 34 34 34 34 34 32 31 30 29 29 29 27 26 27 25 24 24 22 19 18 21 23 24 25 25 24 24 25 26 28 30 31 33 37 40 42 43 43 41 38 38 39 40 39 38 34 30 28 27 26 26 25 23 22 23 23 22 21 19 16 15 16 17
36 34 33 33 32 33 34 34 34 34 33 34 34 34 33 33 33 35 35 35 35 34 33 33 33 34 34 34 34 33 33 33 31 29 28 28 27 26 26 26 26 25 22 21 21 22 23 24 26 28 27 26 25 26 27 28 30 33 37 40 42 42 43 42 39 40 40 37 39 41 37 33 32 30 26 26 27 26 24 24 24 22 20 19 18 18 18 17
36 34 33 32 31 32 33 32 32 32 32 33 32 32 32 31 31 31 33 34 35 35 34 33 34 34 33 34 34 32 32 32 32 32 30 29 27 25 26 26 27 25 23 23 24 23 23 25 27 29 30 29 27 26 27 29 30 32 35 38 40 40 42 44 43 43 40 37 38 39 39 39 37 33 29 26 25 26 25 24 24 23 22 21 20 20 20 19
34 34 32 31 31 31 30 30 30 31 31 32 32 32 32 31 31 30 30 31 33 35 34 34 35 36 35 33 32 32 32 32 33 33 32 30 29 27 26 27 28 27 25 24 24 23 23 26 27 28 30 31 31 30 30 30 31 32 33 35 38 40 41 43 45 44 42 40 39 36 37 40 40 38 35 30 26 25 25 25 25 26 25 23 19 19 20 21
33 33 32 31 32 31 31 31 31 32 32 31 30 31 31 31 32 31 29 29 31 33 34 34 35 36 36 35 33 31 32 31 31 32 32 31 31 29 28 28 28 29 27 26 24 23 23 24 26 27 28 30 31 32 32 33 33 33 35 36 37 39 41 42 43 44 44 45 43 39 37 39 38 39 39 36 32 29 26 27 28 28 28 25 21 20 21 22
31 31 30 30 31 31 31 31 30 30 31 30 30 30 30 30 31 30 29 29 29 30 32 33 32 31 33 35 33 32 31 30 29 29 29 30 30 29 28 27 27 28 29 27 25 24 23 23 24 25 26 27 29 31 32 34 35 35 36 37 37 38 40 42 42 42 43 44 45 43 42 40 37 37 38 38 37 34 30 30 30 29 28 26 23 22 22 22
29 29 29 29 29 29 29 29 28 28 28 28 29 29 29 29 29 29 30 31 31 29 29 29 29 28 28 30 31 31 30 29 29 28 27 28 29 27 27 27 26 26 27 26 25 24 23 22 22 22 23 25 26 28 31 32 34 36 37 37 38 38 38 39 39 40 40 41 42 43 43 40 36 35 35 35 36 36 33 32 31 29 28 26 24 23 23 23
27 27 27 28 28 27 27 27 27 27 27 27 27 27 28 28 28 28 29 30 30 30 28 27 27 28 28 27 27 28 27 28 29 30 29 29 30 29 29 28 28 27 26 25 25 24 22 21 21 21 22 22 23 25 27 28 30 32 34 35 37 37 37 37 38 39 40 39 39 40 40 38 36 36 36 35 36 36 35 33 32 30 28 27 25 24 24 24
Wind_Direction
321 321 320 320 320 320 319 318 317 316 315 314 313 311 310 308 305 303 302 301 301 302 302 304 305 304 302 301 301 299 297 293 282 271 263 263 258 240 231 219 208 205 202 198 196 193 188 190 189 185 184 185 195 192 182 185 182 175 167 155 139 128 125 136 145 129 120 136 144 148 153 148 142 147 138 139 150 152 158 161 162 161 160 158 153 158 162 161
320 319 319 318 317 318 318 318 317 315 314 313 312 312 311 310 308 305 302 300 298 299 299 300 301 302 301 299 298 296 295 288 277 268 257 252 252 239 226 214 206 202 199 199 198 196 193 192 189 188 190 191 195 190 186 187 187 190 184 168 154 130 121 133 149 145 140 146 150 155 158 154 147 149 148 152 154 153 159 159 163 161 154 153 152 158 163 163
320 319 318 317 316 316 315 315 315 315 314 313 311 311 310 309 309 307 305 301 298 296 296 296 297 298 299 298 295 293 291 285 275 260 235 237 255 241 219 209 205 201 201 201 199 198 197 193 190 191 196 199 198 194 195 192 190 198 199 191 177 155 141 149 163 162 155 154 159 161 163 161 152 150 155 162 159 161 165 161 165 166 158 156 156 160 163 164
320 319 318 317 316 315 314 314 313 313 312 312 311 310 309 308 307 307 306 304 300 296 294 293 293 294 294 294 293 290 287 280 268 236 216 242 262 242 216 206 203 201 202 203 200 200 199 195 194 197 201 205 203 202 203 195 191 197 198 199 170 149 174 177 176 171 162 161 164 164 167 166 158 156 163 168 165 167 172 166 168 168 161 159 158 162 165 166
320 319 318 317 316 315 314 313 312 311 311 310 310 310 309 308 307 305 304 303 302 299 295 291 290 289 288 288 287 286 280 270 250 225 231 254 259 241 216 205 201 200 202 204 203 202 201 198 198 202 205 207 204 205 210 203 201 205 207 215 205 181 192 175 180 180 170 165 164 165 170 166 161 165 168 169 167 166 171 169 168 164 160 161 161 163 166 167
319 319 318 318 317 315 314 313 312 311 310 309 308 308 307 307 306 305 303 302 301 300 297 293 289 286 283 282 281 278 269 256 253 249 248 249 245 235 216 206 202 201 203 205 205 204 203 200 200 204 207 209 208 209 213 208 209 216 214 217 218 213 216 195 188 186 178 174 166 165 166 162 164 170 170 172 166 152 162 165 163 161 159 161 162 163 167 168
317 317 317 317 316 316 315 313 312 311 310 308 307 307 306 305 305 303 302 301 300 298 297 294 290 284 279 276 273 269 259 256 261 254 246 238 232 229 219 210 205 204 205 206 205 204 204 202 203 205 207 209 211 212 213 209 210 218 218 216 217 218 224 221 201 190 188 185 173 165 164 164 170 168 167 176 168 147 155 160 158 158 159 161 162 165 167 168
316 316 315 315 315 315 314 313 312 311 310 308 307 305 304 304 303 302 301 299 298 296 295 293 290 284 277 272 268 265 259 257 258 250 241 233 229 227 220 213 210 207 207 207 206 205 205 205 205 205 208 210 212 212 210 209 211 218 222 222 221 222 227 226 211 198 194 190 177 172 169 168 172 165 167 176 169 156 156 156 157 157 158 162 163 164 166 168
315 314 314 313 313 313 312 312 312 311 310 308 307 305 304 303 301 301 300 298 296 295 293 290 287 282 275 270 265 262 259 257 253 247 240 234 232 226 220 218 214 210 210 209 207 206 206 207 206 206 211 214 214 212 209 211 213 215 220 224 224 224 226 224 215 204 195 189 182 180 177 172 169 162 170 177 168 161 160 157 158 158 160 163 164 164 166 168
314 313 312 312 311 311 311 311 310 310 309 308 307 305 303 302 301 299 298 296 295 292 289 286 283 278 274 270 264 260 256 255 251 246 241 237 234 227 224 223 217 213 212 210 208 207 206 207 208 209 216 218 216 214 211 212 214 210 217 223 223 225 224 219 216 209 198 189 187 185 181 176 172 171 176 177 171 165 164 161 160 162 164 165 165 165 166 169
314 313 312 311 310 309 309 309 309 309 308 307 306 305 303 302 300 298 296 294 293 290 285 282 277 273 273 268 264 262 257 254 252 247 242 237 235 233 231 228 221 217 214 212 210 209 208 208 209 209 215 218 215 216 216 215 218 215 216 219 219 223 221 216 218 207 194 187 188 186 182 179 182 189 184 174 173 170 168 165 164 166 168 169 168 167 167 170
315 314 312 311 310 309 308 307 307 307 307 306 306 305 303 301 299 298 296 294 290 286 283 279 273 271 273 266 262 263 259 255 252 247 243 239 238 237 234 230 224 219 217 214 211 209 209 210 209 209 211 215 215 216 217 215 219 218 216 220 217 219 220 217 215 201 191 188 187 182 181 189 197 198 181 168 171 172 172 169 168 171 171 172 173 171 171 173
316 315 313 311 310 308 307 306 305 305 305 304 304 304 302 300 299 297 295 293 288 285 281 276 271 272 270 266 265 267 263 256 252 248 244 241 239 235 231 228 224 221 219 216 213 209 209 210 210 211 212 216 216 213 213 212 216 216 215 222 219 218 218 211 204 194 190 189 184 181 187 196 199 197 180 167 170 171 174 175 173 174 174 176 177 176 176 176
317 315 314 312 311 309 308 306 305 304 303 302 301 301 300 299 298 296 294 290 287 283 280 274 272 271 267 267 272 273 267 258 250 244 242 238 234 230 226 223 222 221 219 216 214 208 208 209 210 214 215 216 217 212 211 210 213 215 216 219 219 221 211 197 194 190 188 186 184 188 198 193 184 186 180 170 172 173 175 177 178 178 178 179 181 183 183 182
317 316 315 313 312 310 309 307 306 304 302 301 299 298 297 296 294 293 291 289 285 281 278 275 272 271 270 271 272 270 264 255 244 237 237 235 229 226 221 219 219 218 216 214 212 208 207 208 210 213 213 214 218 214 212 212 212 213 214 215 214 218 203 189 194 193 188 185 187 194 202 196 179 176 176 172 174 178 180 179 180 182 182 184 186 188 189 188
317 317 315 314 312 311 310 308 307 305 302 300 298 296 295 292 290 288 287 286 282 278 277 275 271 271 274 274 268 261 258 252 242 235 235 234 231 227 219 217 216 214 213 211 211 209 207 208 209 212 213 213 215 213 212 214 214 211 212 215 211 209 200 191 198 199 191 186 190 196 198 195 181 174 174 176 178 180 185 185 183 185 185 187 189 192 193 193
317 317 316 315 314 313 312 310 308 306 303 300 298 295 293 289 285 283 283 281 279 277 275 276 273 271 272 270 263 258 253 246 242 241 241 239 236 227 217 215 216 213 211 210 211 210 206 207 208 211 213 214 213 212 212 213 211 209 211 217 214 209 206 196 196 199 194 191 194 198 201 196 178 176 179 180 182 185 189 189 188 188 189 191 193 194 195 195
316 316 316 315 315 314 312 311 309 307 304 301 298 294 290 285 282 280 278 276 277 275 274 273 270 271 270 262 258 256 251 246 247 252 250 243 235 224 216 217 215 211 210 210 211 209 207 208 208 210 213 213 212 210 211 211 209 208 208 213 215 212 211 203 196 197 196 196 198 198 203 203 188 185 191 186 185 190 194 195 194 193 193 194 195 197 198 198
314 314 314 314 314 313 313 311 310 308 305 301 298 294 288 283 280 276 273 272 272 271 274 268 259 269 276 265 259 259 259 256 257 257 249 239 229 220 218 219 213 211 212 211 210 208 207 208 209 211 211 210 210 209 211 212 210 211 209 212 215 213 212 208 201 196 195 198 201 199 203 206 199 195 199 196 192 196 199 200 200 199 198 198 199 200 201 201
311 312 312 312 312 311 311 310 309 308 305 302 300 294 287 285 281 276 274 271 268 268 272 268 259 266 273 268 264 264 264 260 257 253 241 232 225 219 219 218 214 215 216 213 210 209 208 210 211 211 210 209 209 211 213 215 215 215 212 214 218 217 213 206 202 197 196 201 203 203 205 209 209 204 203 203 200 202 203 202 204 204 202 202 202 203 203 204
310 310 311 311 310 310 309 309 308 305 303 301 299 293 288 289 286 282 282 277 270 266 266 266 262 263 265 265 265 264 264 260 252 246 240 232 225 221 219 217 216 218 217 214 212 210 211 214 214 211 211 212 212 213 215 217 218 217 215 216 218 221 215 202 200 197 199 206 207 207 210 212 214 211 207 208 206 207 208 207 208 209 208 207 205 206 206 206
308 308 309 309 309 308 307 307 306 301 299 298 295 291 288 289 288 286 285 280 274 268 264 263 262 261 262 262 262 260 258 256 251 244 237 230 224 222 219 217 219 219 216 215 213 212 215 217 215 212 212 215 215 215 215 217 220 218 217 218 218 220 212 200 201 199 201 209 211 210 214 216 216 215 213 215 216 215 215 214 215 214 213 212 210 210 210 210
306 307 308 308 308 307 306 306 302 297 298 296 290 286 286 288 289 287 283 280 278 270 261 259 258 258 261 262 258 253 251 252 250 242 232 228 226 223 221 220 220 219 216 216 215 215 217 218 216 213 213 216 216 215 215 218 221 220 218 217 218 217 210 204 204 201 203 211 216 216 218 222 222 221 220 221 223 222 221 221 222 221 219 218 216 215 214 215
304 306 306 306 307 305 305 303 297 294 297 294 286 282 285 288 290 290 283 278 279 270 259 257 256 257 259 261 254 246 249 251 248 241 229 226 227 225 224 223 220 221 219 217 219 220 220 219 216 214 213 214 215 214 215 218 220 222 220 218 218 215 212 211 207 204 207 213 218 220 225 230 228 224 223 224 226 226 224 224 225 224 224 223 222 220 219 219
303 304 304 305 304 304 304 297 291 294 296 290 282 279 284 288 289 290 285 279 278 270 260 257 256 256 254 253 249 245 251 251 246 241 230 225 227 226 225 224 223 224 221 218 220 223 222 219 215 214 213 213 215 216 216 217 219 221 221 220 220 217 215 214 209 207 213 218 218 220 229 234 228 225 226 225 225 226 226 226 226 225 224 225 225 223 221 221
302 302 302 302 301 303 300 290 288 294 291 284 281 281 283 286 288 287 283 279 276 270 262 258 255 252 248 245 243 244 251 251 246 240 232 227 227 228 227 225 225 226 223 219 222 224 222 218 215 215 215 214 216 218 216 216 220 222 220 219 221 222 219 215 210 211 218 221 219 220 230 236 231 228 228 227 226 228 228 227 226 224 223 223 224 224 222 222
301 300 300 299 299 299 293 286 288 290 285 281 282 283 283 284 285 283 279 276 272 267 262 256 252 247 245 243 237 241 250 251 247 238 231 228 226 228 231 227 225 227 225 220 223 224 221 218 215 215 216 216 217 218 215 215 220 222 220 219 220 221 221 215 212 217 223 225 223 223 228 235 237 234 230 228 227 229 231 228 227 225 223 222 222 222 223 222
300 299 298 297 296 293 285 282 285 284 280 279 280 281 282 282 280 277 275 273 268 265 259 251 249 247 245 242 237 244 254 252 251 242 230 228 225 227 231 229 226 226 223 222 224 223 220 220 217 214 217 218 218 218 214 214 218 222 223 220 218 219 221 219 218 222 226 228 229 226 226 234 240 236 231 227 226 229 232 229 228 226 224 223 223 222 222 222
300 299 298 296 294 288 280 278 279 278 277 277 277 278 278 276 273 270 270 269 264 262 258 249 246 244 242 243 242 246 252 249 251 245 231 228 227 229 234 232 229 227 223 224 227 225 223 223 220 217 218 219 219 218 216 215 216 221 223 219 216 219 222 222 222 223 226 229 230 226 223 230 238 234 227 226 226 229 232 230 228 227 225 226 225 224 223 222
299 298 297 296 292 285 279 276 275 275 275 274 273 274 273 268 265 263 260 262 264 259 253 248 245 241 240 244 243 242 245 246 245 241 234 229 228 232 237 234 231 230 227 226 228 228 226 223 221 219 219 220 219 218 218 216 215 217 219 217 217 220 222 224 223 222 227 229 227 226 223 225 235 234 226 226 227 229 232 232 232 230 227 226 224 224 223 222
298 296 295 294 289 282 279 276 274 273 271 271 271 269 266 261 259 258 256 262 265 255 249 246 242 239 241 244 244 241 242 244 240 236 234 231 228 229 233 232 229 230 230 228 228 228 226 222 221 220 219 219 219 218 217 215 214 215 218 218 219 220 220 223 222 223 229 229 224 227 227 225 232 235 229 228 227 229 234 235 235 235 229 224 222 223 223 223
296 295 294 291 285 279 274 273 272 271 269 269 268 263 258 256 255 253 254 262 261 252 249 247 240 238 241 245 246 244 245 245 239 235 233 230 229 229 229 229 226 226 229 228 227 227 227 225 221 220 218 217 217 216 216 215 214 214 217 219 219 218 219 222 222 222 228 230 227 229 230 228 232 235 235 233 227 227 233 238 242 242 232 224 221 222 223 223
295 294 292 288 284 277 272 271 270 268 268 266 262 257 253 255 255 251 248 251 254 255 253 247 242 240 242 244 245 244 247 245 237 234 232 229 231 231 229 230 227 227 229 228 225 226 227 227 222 220 218 217 216 216 215 214 213 213 214 216 217 219 220 222 223 225 228 231 230 229 230 230 233 236 237 236 232 232 237 243 246 245 237 230 223 221 222 222
294 292 290 286 282 276 272 270 268 265 264 260 256 252 249 252 255 251 247 246 249 254 250 246 245 244 243 244 246 246 247 244 235 233 232 229 232 233 230 230 228 229 231 229 227 225 226 227 223 221 219 216 216 218 217 215 215 214 214 217 221 221 223 225 226 228 230 231 228 224 226 231 233 235 235 232 231 234 240 245 244 242 239 235 227 222 222 222
292 289 287 284 279 275 272 269 265 262 259 256 253 250 248 251 253 251 250 247 247 250 248 248 249 248 246 245 246 245 244 243 235 232 234 232 233 233 231 230 227 227 229 230 230 227 229 231 225 221 220 218 217 218 217 216 216 216 215 219 222 222 224 230 232 233 233 234 229 224 228 233 234 235 232 227 228 234 240 243 240 236 234 231 227 223 223 223
290 286 284 281 276 274 271 267 263 259 256 253 251 250 250 252 251 250 251 249 247 248 248 249 248 248 248 245 243 240 239 242 238 234 236 234 234 234 232 232 227 225 227 229 231 230 231 233 225 219 220 219 218 217 216 216 217 216 216 219 222 223 226 230 234 235 234 234 231 227 231 235 233 235 234 232 236 238 238 238 235 233 230 227 226 224 224 225
287 285 283 278 273 272 270 267 261 256 254 252 250 251 252 251 250 250 250 249 248 247 247 247 245 245 245 244 243 238 235 239 238 237 237 234 235 234 231 232 228 226 227 228 232 232 233 235 226 219 219 219 218 217 218 219 219 217 218 219 220 223 226 229 231 231 229 232 232 229 231 231 229 233 233 232 235 236 234 235 235 232 229 228 227 224 224 226
286 284 280 273 271 270 269 266 261 254 252 251 251 252 253 251 249 247 247 248 249 246 244 245 244 242 242 243 242 236 232 235 235 235 236 234 235 233 230 231 228 226 226 227 231 232 232 236 229 220 220 219 217 218 219 220 220 220 222 220 218 220 223 224 227 228 228 232 234 232 234 232 229 230 226 222 224 223 223 227 231 230 228 227 227 225 225 226
285 282 276 270 269 269 267 265 260 254 252 251 251 252 252 251 249 246 246 246 247 245 243 243 243 242 241 241 240 233 231 233 233 233 233 232 233 231 229 230 227 225 224 224 230 232 229 234 231 221 219 218 217 217 218 217 218 221 224 221 220 223 224 223 226 229 231 233 235 235 235 232 229 229 224 220 217 216 218 226 233 237 235 230 228 228 228 226
284 280 274 271 269 269 268 265 259 254 252 251 251 252 251 251 250 247 245 245 244 244 243 242 242 241 240 239 239 236 233 234 234 233 233 230 231 233 231 229 226 224 223 223 228 231 229 231 232 224 217 216 217 218 218 217 216 218 221 221 220 222 223 225 228 229 231 235 236 236 236 233 229 229 227 224 222 223 229 236 240 243 244 239 232 231 229 226
283 278 274 271 270 269 268 262 257 254 253 252 251 251 251 251 250 248 245 243 243 244 243 242 241 241 240 239 238 237 236 236 235 234 234 231 231 235 232 228 226 224 222 223 225 228 228 228 229 226 220 219 221 221 220 221 219 218 220 221 221 221 221 225 228 227 229 234 234 236 238 234 227 226 225 226 229 230 234 239 242 245 249 245 237 232 229 226
280 276 275 274 271 269 265 260 257 255 254 252 251 251 251 250 249 248 245 243 242 242 241 241 241 240 240 239 238 237 236 236 234 233 234 232 231 231 229 227 228 226 224 226 226 225 227 228 228 228 227 225 224 223 222 222 222 223 223 223 223 223 223 225 228 227 228 232 234 236 240 235 229 226 223 224 230 232 232 237 242 245 247 244 238 233 229 225
279 276 277 276 270 265 263 260 258 255 254 253 253 251 251 250 248 247 245 242 240 239 239 239 238 238 238 238 238 237 236 236 235 233 234 234 231 231 231 230 228 227 225 226 225 222 224 228 228 229 232 230 227 225 224 222 222 224 225 223 223 224 225 227 230 229 230 233 232 234 237 233 227 226 222 222 230 234 234 236 240 243 246 245 237 231 228 226
279 277 275 272 267 263 261 259 258 256 255 254 252 251 250 249 247 245 243 240 238 237 237 237 237 236 236 237 237 236 235 235 236 234 233 234 232 231 232 231 228 225 223 224 224 220 221 225 225 227 229 228 226 224 222 220 221 224 225 224 224 225 225 228 230 231 233 233 231 234 236 232 228 227 225 227 234 236 233 233 238 242 245 246 238 230 229 229
280 276 272 268 264 260 259 259 259 258 257 255 254 253 251 248 246 243 241 240 238 236 236 236 235 235 235 235 235 235 234 234 234 233 232 233 232 229 229 228 227 224 223 228 229 223 222 224 224 225 226 225 225 224 221 221 222 225 226 226 226 225 225 227 229 230 233 233 232 235 237 234 232 229 228 231 232 230 229 234 240 241 242 242 236 230 231 232
279 276 272 269 264 261 260 260 258 257 257 257 256 254 250 248 245 242 240 239 237 236 237 236 235 234 233 232 233 233 232 231 232 231 230 230 229 227 225 224 224 223 225 232 233 227 226 227 225 227 230 230 229 227 225 225 225 226 226 227 227 226 226 227 229 231 232 233 234 235 237 237 234 228 227 229 227 227 233 239 240 238 240 241 237 235 236 236
276 274 272 270 266 263 260 258 256 256 256 256 255 252 250 248 246 242 238 237 235 234 235 235 233 233 231 230 231 232 230 229 229 229 230 229 227 225 222 223 223 222 224 229 229 227 230 230 228 229 233 235 235 233 229 228 229 228 227 227 228 228 228 228 230 231 232 234 236 236 236 237 234 231 230 228 226 230 235 236 235 236 241 242 238 236 236 234
273 272 271 269 265 261 258 258 258 258 257 255 253 251 249 247 244 241 238 236 235 232 232 233 232 232 232 230 231 231 230 228 228 228 228 228 227 227 225 224 224 221 221 224 226 227 231 232 231 232 235 236 236 236 234 232 232 231 230 228 228 229 229 229 231 232 232 235 238 237 235 235 235 234 233 231 231 234 234 235 238 241 244 242 236 233 233 231
271 269 268 266 262 260 260 260 259 258 255 253 250 248 246 244 241 239 237 236 234 231 230 231 231 231 232 231 231 230 228 227 227 226 226 226 226 226 226 225 224 222 222 225 227 227 230 233 233 235 238 238 236 236 236 235 234 233 232 231 230 230 230 231 233 234 234 236 239 239 239 239 238 236 235 235 236 238 237 239 242 243 243 242 236 233 232 229
270 268 266 264 262 260 259 257 255 254 252 250 248 245 243 241 239 237 236 235 234 230 228 229 231 232 231 229 228 228 227 227 227 224 224 224 223 223 224 224 223 221 221 225 226 225 229 232 231 235 239 239 237 236 236 236 235 234 233 232 232 232 231 231 232 233 234 236 238 239 241 242 239 237 237 236 236 237 238 240 242 242 241 239 236 233 231 229
268 266 264 263 261 258 256 254 252 251 249 247 245 244 241 238 237 238 237 234 233 230 229 230 231 231 229 226 225 226 227 228 228 225 225 224 223 223 223 223 222 221 219 221 223 224 228 232 231 234 238 238 236 236 236 237 237 236 234 231 231 231 232 232 232 231 232 234 235 237 239 239 237 236 236 235 233 235 237 239 240 240 237 235 235 233 231 230
266 264 262 260 258 256 255 253 250 248 247 245 244 243 240 238 238 239 236 232 229 229 230 232 232 229 227 226 224 226 229 230 229 229 229 228 227 226 225 224 225 224 221 221 223 223 227 231 231 232 237 239 238 237 237 237 237 236 233 231 230 231 232 233 233 232 232 232 234 236 237 238 238 236 235 234 233 234 236 237 237 236 234 233 235 234 233 231